Regional Weather Roundup
Issued by NWS

Home | Current Version | Previous Version | Graphics & Text | Print | Product List | Glossary On
Versions: 1 2 3 4 5 6 7 8 9 10 11 12 13 14 15 16 17 18 19 20 21 22 23 24 25 26 27 28 29 30 31 32 33 34 35 36 37 38 39 40 41 42 43 44 45 46 47 48 49 50
000
ASUS45 KCYS 280410
RWRWY

WYOMING REGIONAL WEATHER ROUNDUP
NATIONAL WEATHER SERVICE CHEYENNE WY
1000 PM MDT MON APR 27 2015

NOTE:  "FAIR" INDICATES FEW OR NO CLOUDS BELOW 12,000 FEET
WITH NO SIGNIFICANT WEATHER AND/OR OBSTRUCTIONS TO VISIBILITY.

WYZ001-280500-
YELLOWSTONE NATIONAL PARK

CITY           SKY/WX    TMP DP  RH WIND       PRES   REMARKS
LK YELLOWSTONE   N/A     30  24  78 CALM      30.36R
W YELLOWSTONE  NOT AVBL

$$
WYZ002>013-054>058-071-098>099-280500-
NORTHERN WYOMING

CITY           SKY/WX    TMP DP  RH WIND       PRES   REMARKS
JACKSON        FAIR      43  32  65 CALM      30.30R
CODY           CLOUDY    48  37  66 SE6       30.31R
GREYBULL       FAIR      48  34  58 SE5       30.29R
WORLAND        FAIR      44  35  70 SE8       30.29R
SHERIDAN       FAIR      40  35  83 CALM      30.30R
BUFFALO        FAIR      40  33  76 SW5       30.33R
GILLETTE       FAIR      40  34  79 S5        30.32R
HULETT         FAIR      37  34  87 E3        30.34S
NEWCASTLE      CLOUDY    45  37  76 NW7       30.33S

$$
WYZ014>020-022>026-101>103-280500-
CENTRAL WYOMING

CITY           SKY/WX    TMP DP  RH WIND       PRES   REMARKS
BIG PINEY      MOCLDY    43  35  73 CALM      30.31R
PINEDALE       MOCLDY    41  34  75 CALM      30.32R
DUBOIS         CLOUDY    39  32  75 SE8       30.34R WCI  34
LANDER         FAIR      42  33  70 SW7       30.32R
RIVERTON       FAIR      43  34  70 W6        30.33R
CASPER         CLOUDY    43  36  76 NE5       30.35R
DOUGLAS        CLOUDY    44  37  76 N6        30.36R

$$
WYZ021-027>030-104>119-280500-
SOUTHERN WYOMING

CITY           SKY/WX    TMP DP  RH WIND       PRES   REMARKS
EVANSTON       FAIR      42  31  64 E7        30.29R
KEMMERER       FAIR      43  32  65 SE3       30.30S
FORT BRIDGER   CLEAR     41  34  75 SE7       30.32R
ROCK SPRINGS   FAIR      39  33  79 NE9       30.31R WCI  33
DIXON          FAIR      44  36  73 NE12      30.29R
RAWLINS        MOCLDY    40  33  76 NE14      30.32R WCI  32
SARATOGA       FAIR      36  34  93 SW7       30.30R WCI  30
LARAMIE        CLOUDY    38  31  76 S10       30.34R WCI  31
CHEYENNE       CLOUDY    40  36  86 N3        30.35R
TORRINGTON     FAIR      43  38  82 N7        30.33R
PINE BLUFFS    CLOUDY    43  39  87 N9        30.34R

$$


USA.gov is the U.S. government's official web portal to all federal, state and local government web resources and services.